| time (UTC) | temp F | wind direction | speed knots | gust knots | rain 1hr in | rain 24hr in | rain mn in | humidity % | barometer mb |
| 20260504173518 | 73 | 360 | 3.5 | 11.3 | 0.00 | 0.00 | 0.00 | 39 | 1012.7 |
| 20260504173036 | 73 | 360 | 4.3 | 11.3 | 0.00 | 0.00 | 0.00 | 37 | 1012.8 |
| 20260504172518 | 72 | 360 | 4.3 | 10.4 | 0.00 | 0.00 | 0.00 | 38 | 1012.9 |
| 20260504172017 | 72 | 360 | 2.6 | 10.4 | 0.00 | 0.00 | 0.00 | 38 | 1013.1 |
| 20260504171536 | 72 | 360 | 4.3 | 10.4 | 0.00 | 0.00 | 0.00 | 36 | 1013.2 |
| 20260504171018 | 72 | 360 | 4.3 | 10.4 | 0.00 | 0.00 | 0.00 | 36 | 1013.2 |
| 20260504170518 | 71 | 360 | 4.3 | 11.3 | 0.00 | 0.00 | 0.00 | 36 | 1013.0 |
| 20260504151018 | 67 | 360 | 2.6 | 8.7 | 0.00 | 0.00 | 0.00 | 41 | 1014.4 |
| 20260504150517 | 66 | 360 | 3.5 | 7.8 | 0.00 | 0.00 | 0.00 | 44 | 1014.5 |
| 20260504141018 | 63 | 360 | 2.6 | 7.0 | 0.00 | 0.00 | 0.00 | 45 | 1014.4 |
| 20260504140517 | 63 | 360 | 2.6 | 7.8 | 0.00 | 0.00 | 0.00 | 46 | 1014.6 |
| 20260504130517 | 56 | 0 | 1.7 | 7.0 | 0.00 | 0.00 | 0.00 | 58 | 1015.3 |
| 20260504110517 | 45 | 0 | 0.0 | 1.7 | 0.00 | 0.00 | 0.00 | 77 | 1015.8 |
| 20260504100516 | 47 | 360 | 0.9 | 1.7 | 0.00 | 0.00 | 0.00 | 74 | 1015.5 |
| 20260504081533 | 47 | 360 | 0.0 | 1.7 | 0.00 | 0.00 | 0.00 | 69 | 1015.9 |
| 20260504081022 | 47 | 0 | 0.0 | 1.7 | 0.00 | 0.00 | 0.00 | 69 | 1015.8 |
| 20260504080517 | 47 | 0 | 0.0 | 1.7 | 0.00 | 0.00 | 0.00 | 69 | 1015.9 |
| 20260504050521 | 47 | 360 | 0.9 | 1.7 | 0.00 | 0.00 | 0.00 | 66 | 1016.4 |
| 20260504045517 | 47 | 0 | 0.0 | 0.0 | 0.00 | 0.00 | 0.00 | 66 | 1016.3 |
| 20260504045017 | 47 | 0 | 0.0 | 0.9 | 0.00 | 0.00 | 0.00 | 65 | 1016.2 |
| 20260504044539 | 47 | 0 | 0.0 | 1.7 | 0.00 | 0.00 | 0.00 | 64 | 1016.2 |
| 20260504044017 | 48 | 0 | 0.0 | 1.7 | 0.00 | 0.00 | 0.00 | 64 | 1016.1 |
| 20260504043518 | 48 | 360 | 0.0 | 1.7 | 0.00 | 0.00 | 0.00 | 62 | 1016.0 |
| 20260504043036 | 48 | 360 | 0.0 | 1.7 | 0.00 | 0.00 | 0.00 | 62 | 1015.9 |
| 20260504042518 | 47 | 0 | 0.0 | 1.7 | 0.00 | 0.00 | 0.00 | 62 | 1015.8 |
| 20260504042017 | 48 | 360 | 0.0 | 1.7 | 0.00 | 0.00 | 0.00 | 64 | 1015.8 |
| 20260504041535 | 48 | 0 | 0.0 | 1.7 | 0.00 | 0.00 | 0.00 | 66 | 1015.8 |
| 20260504041017 | 48 | 0 | 0.0 | 1.7 | 0.00 | 0.00 | 0.00 | 63 | 1015.9 |
| 20260504040517 | 48 | 360 | 0.0 | 1.7 | 0.00 | 0.00 | 0.00 | 62 | 1015.8 |
| 20260504040058 | 48 | 0 | 0.0 | 0.0 | 0.00 | 0.00 | 0.00 | 63 | 1015.8 |
| 20260504035518 | 48 | 0 | 0.0 | 0.9 | 0.00 | 0.00 | 0.00 | 65 | 1015.8 |
| 20260504035017 | 48 | 0 | 0.0 | 0.9 | 0.00 | 0.00 | 0.00 | 61 | 1015.9 |
| 20260504034534 | 48 | 0 | 0.0 | 1.7 | 0.00 | 0.00 | 0.00 | 61 | 1016.0 |
| 20260504034016 | 48 | 0 | 0.0 | 1.7 | 0.00 | 0.00 | 0.00 | 59 | 1016.0 |
| 20260504033516 | 49 | 360 | 0.0 | 1.7 | 0.00 | 0.00 | 0.00 | 59 | 1016.0 |
| 20260504033035 | 49 | 360 | 0.9 | 1.7 | 0.00 | 0.00 | 0.00 | 59 | 1016.0 |
| 20260504032516 | 50 | 360 | 0.0 | 1.7 | 0.00 | 0.00 | 0.00 | 58 | 1016.0 |
| 20260504032017 | 50 | 360 | 0.9 | 1.7 | 0.00 | 0.00 | 0.00 | 52 | 1016.1 |
| 20260504031535 | 51 | 0 | 0.0 | 1.7 | 0.00 | 0.00 | 0.00 | 53 | 1016.0 |
| 20260504031016 | 52 | 0 | 0.0 | 1.7 | 0.00 | 0.00 | 0.00 | 51 | 1016.1 |
| 20260504030516 | 53 | 360 | 0.9 | 1.7 | 0.00 | 0.00 | 0.00 | 47 | 1016.0 |
| 20260504030034 | 54 | 360 | 0.0 | 2.6 | 0.00 | 0.00 | 0.00 | 48 | 1016.0 |
| 20260504025518 | 55 | 0 | 0.9 | 3.5 | 0.00 | 0.00 | 0.00 | 42 | 1015.9 |
| 20260504025016 | 55 | 360 | 0.9 | 3.5 | 0.00 | 0.00 | 0.00 | 42 | 1016.0 |
| 20260504024531 | 55 | 360 | 1.7 | 4.3 | 0.00 | 0.00 | 0.00 | 42 | 1016.0 |
| 20260504024015 | 54 | 360 | 2.6 | 5.2 | 0.00 | 0.00 | 0.00 | 42 | 1016.0 |
| 20260504023514 | 54 | 360 | 2.6 | 5.2 | 0.00 | 0.00 | 0.00 | 42 | 1016.0 |
| 20260504023032 | 55 | 360 | 2.6 | 5.2 | 0.00 | 0.00 | 0.00 | 41 | 1016.0 |
| 20260504022515 | 55 | 360 | 2.6 | 5.2 | 0.00 | 0.00 | 0.00 | 41 | 1016.0 |
| 20260504022015 | 55 | 360 | 1.7 | 5.2 | 0.00 | 0.00 | 0.00 | 40 | 1015.8 |
| 20260504021535 | 55 | 360 | 1.7 | 5.2 | 0.00 | 0.00 | 0.00 | 40 | 1015.8 |
| 20260504021018 | 55 | 360 | 2.6 | 5.2 | 0.00 | 0.00 | 0.00 | 39 | 1015.9 |
| 20260504020514 | 55 | 360 | 2.6 | 5.2 | 0.00 | 0.00 | 0.00 | 39 | 1015.9 |
| 20260504020034 | 55 | 360 | 2.6 | 5.2 | 0.00 | 0.00 | 0.00 | 39 | 1015.8 |
| 20260504015516 | 56 | 360 | 1.7 | 7.0 | 0.00 | 0.00 | 0.00 | 38 | 1015.9 |
| 20260504015015 | 56 | 360 | 2.6 | 7.0 | 0.00 | 0.00 | 0.00 | 37 | 1015.7 |
| 20260504014537 | 56 | 360 | 2.6 | 7.8 | 0.00 | 0.00 | 0.00 | 37 | 1015.7 |
| 20260504014016 | 56 | 360 | 3.5 | 7.8 | 0.00 | 0.00 | 0.00 | 37 | 1015.6 |
| 20260504013517 | 56 | 360 | 2.6 | 7.8 | 0.00 | 0.00 | 0.00 | 36 | 1015.6 |
| 20260504013030 | 57 | 360 | 2.6 | 5.2 | 0.00 | 0.00 | 0.00 | 36 | 1015.5 |
| 20260504012514 | 57 | 360 | 2.6 | 5.2 | 0.00 | 0.00 | 0.00 | 35 | 1015.5 |
| 20260504012017 | 57 | 360 | 2.6 | 5.2 | 0.00 | 0.00 | 0.00 | 34 | 1015.4 |
| 20260504011530 | 57 | 360 | 2.6 | 4.3 | 0.00 | 0.00 | 0.00 | 34 | 1015.4 |
| 20260504011014 | 57 | 360 | 1.7 | 3.5 | 0.00 | 0.00 | 0.00 | 34 | 1015.4 |
| 20260504010514 | 57 | 360 | 1.7 | 4.3 | 0.00 | 0.00 | 0.00 | 34 | 1015.4 |
| 20260504010032 | 56 | 360 | 2.6 | 4.3 | 0.00 | 0.00 | 0.00 | 34 | 1015.4 |
| 20260504005514 | 56 | 360 | 1.7 | 3.5 | 0.00 | 0.00 | 0.00 | 33 | 1015.3 |
| 20260504005013 | 56 | 360 | 1.7 | 2.6 | 0.00 | 0.00 | 0.00 | 34 | 1015.2 |
| 20260504004542 | 56 | 360 | 0.9 | 2.6 | 0.00 | 0.00 | 0.00 | 33 | 1015.1 |
| 20260504004016 | 57 | 360 | 1.7 | 2.6 | 0.00 | 0.00 | 0.00 | 34 | 1015.1 |
| 20260504003514 | 57 | 360 | 0.9 | 2.6 | 0.00 | 0.00 | 0.00 | 34 | 1015.1 |
| 20260504003031 | 57 | 360 | 1.7 | 2.6 | 0.00 | 0.00 | 0.00 | 34 | 1015.1 |
| 20260504002517 | 57 | 360 | 1.7 | 2.6 | 0.00 | 0.00 | 0.00 | 34 | 1015.1 |
| 20260504002016 | 57 | 360 | 1.7 | 2.6 | 0.00 | 0.00 | 0.00 | 34 | 1015.1 |
| 20260504001531 | 58 | 360 | 1.7 | 2.6 | 0.00 | 0.00 | 0.00 | 34 | 1015.0 |
| 20260504001014 | 58 | 360 | 0.9 | 2.6 | 0.00 | 0.00 | 0.00 | 35 | 1015.1 |
| 20260504000513 | 58 | 360 | 1.7 | 2.6 | 0.00 | 0.00 | 0.00 | 34 | 1015.2 |
| 20260504000031 | 59 | 360 | 0.9 | 2.6 | 0.00 | 0.00 | 0.00 | 33 | 1015.2 |
| 20260503235513 | 60 | 360 | 0.9 | 2.6 | 0.00 | 0.00 | 0.00 | 34 | 1015.1 |
| 20260503235019 | 60 | 360 | 0.9 | 2.6 | 0.00 | 0.00 | 0.00 | 33 | 1015.2 |
| 20260503234533 | 61 | 360 | 0.9 | 2.6 | 0.00 | 0.00 | 0.00 | 33 | 1015.1 |
| 20260503234017 | 62 | 360 | 0.9 | 2.6 | 0.00 | 0.00 | 0.00 | 33 | 1015.0 |
| 20260503233513 | 62 | 360 | 0.9 | 1.7 | 0.00 | 0.00 | 0.00 | 32 | 1015.0 |
| 20260503233033 | 63 | 360 | 0.0 | 1.7 | 0.00 | 0.00 | 0.00 | 31 | 1015.0 |
| 20260503232515 | 63 | 0 | 0.0 | 2.6 | 0.00 | 0.00 | 0.00 | 32 | 1015.1 |
| 20260503232015 | 63 | 0 | 0.0 | 3.5 | 0.00 | 0.00 | 0.00 | 28 | 1015.0 |
| 20260503231534 | 63 | 360 | 0.0 | 3.5 | 0.00 | 0.00 | 0.00 | 28 | 1014.9 |
| 20260503231014 | 63 | 360 | 1.7 | 4.3 | 0.00 | 0.00 | 0.00 | 26 | 1014.8 |
| 20260503230517 | 63 | 360 | 0.9 | 5.2 | 0.00 | 0.00 | 0.00 | 27 | 1014.9 |
| 20260503230035 | 63 | 360 | 2.6 | 5.2 | 0.00 | 0.00 | 0.00 | 26 | 1014.9 |
| 20260503225516 | 63 | 360 | 2.6 | 5.2 | 0.00 | 0.00 | 0.00 | 26 | 1014.9 |
| 20260503225017 | 64 | 360 | 1.7 | 5.2 | 0.00 | 0.00 | 0.00 | 27 | 1014.8 |
| 20260503224531 | 63 | 360 | 2.6 | 5.2 | 0.00 | 0.00 | 0.00 | 26 | 1014.7 |
| 20260503224014 | 63 | 360 | 1.7 | 5.2 | 0.00 | 0.00 | 0.00 | 25 | 1014.7 |
| 20260503223514 | 63 | 360 | 2.6 | 7.0 | 0.00 | 0.00 | 0.00 | 25 | 1014.8 |
| 20260503223031 | 63 | 360 | 1.7 | 8.7 | 0.00 | 0.00 | 0.00 | 27 | 1014.8 |
| 20260503222512 | 63 | 360 | 2.6 | 8.7 | 0.00 | 0.00 | 0.00 | 27 | 1014.9 |
| 20260503222015 | 63 | 360 | 4.3 | 8.7 | 0.00 | 0.00 | 0.00 | 27 | 1014.9 |
| 20260503221534 | 64 | 360 | 1.7 | 7.0 | 0.00 | 0.00 | 0.00 | 28 | 1015.0 |
| 20260503221014 | 64 | 360 | 1.7 | 7.0 | 0.00 | 0.00 | 0.00 | 27 | 1015.0 |
| 20260503220519 | 63 | 360 | 2.6 | 8.7 | 0.00 | 0.00 | 0.00 | 28 | 1015.1 |
| 20260503220030 | 63 | 360 | 2.6 | 8.7 | 0.00 | 0.00 | 0.00 | 27 | 1015.0 |
| 20260503215514 | 63 | 360 | 2.6 | 7.8 | 0.00 | 0.00 | 0.00 | 27 | 1015.0 |
| 20260503215015 | 63 | 360 | 3.5 | 7.8 | 0.00 | 0.00 | 0.00 | 27 | 1015.0 |
| 20260503214534 | 63 | 360 | 2.6 | 9.6 | 0.00 | 0.00 | 0.00 | 28 | 1015.0 |
| 20260503214017 | 63 | 360 | 3.5 | 9.6 | 0.00 | 0.00 | 0.00 | 27 | 1015.0 |
| 20260503213515 | 63 | 360 | 2.6 | 7.8 | 0.00 | 0.00 | 0.00 | 27 | 1015.0 |
| 20260503213032 | 63 | 360 | 2.6 | 7.8 | 0.00 | 0.00 | 0.00 | 28 | 1015.0 |
| 20260503212516 | 63 | 360 | 3.5 | 7.8 | 0.00 | 0.00 | 0.00 | 29 | 1015.1 |
| 20260503212014 | 63 | 360 | 2.6 | 9.6 | 0.00 | 0.00 | 0.00 | 28 | 1015.0 |
| 20260503211531 | 63 | 360 | 3.5 | 9.6 | 0.00 | 0.00 | 0.00 | 30 | 1015.1 |
| 20260503211020 | 63 | 360 | 3.5 | 9.6 | 0.00 | 0.00 | 0.00 | 29 | 1015.2 |
| 20260503210514 | 63 | 360 | 5.2 | 11.3 | 0.00 | 0.00 | 0.00 | 30 | 1015.1 |
| 20260503210033 | 63 | 360 | 4.3 | 11.3 | 0.00 | 0.00 | 0.00 | 28 | 1015.2 |
| 20260503205517 | 63 | 360 | 2.6 | 7.8 | 0.00 | 0.00 | 0.00 | 31 | 1015.2 |
| 20260503205016 | 63 | 360 | 3.5 | 10.4 | 0.00 | 0.00 | 0.00 | 30 | 1015.1 |
| 20260503204533 | 63 | 360 | 3.5 | 10.4 | 0.00 | 0.00 | 0.00 | 30 | 1015.3 |
| 20260503204019 | 62 | 360 | 4.3 | 10.4 | 0.00 | 0.00 | 0.00 | 30 | 1015.3 |
| 20260503203518 | 62 | 360 | 4.3 | 13.9 | 0.00 | 0.00 | 0.00 | 31 | 1015.3 |
| 20260503203034 | 62 | 360 | 3.5 | 13.9 | 0.00 | 0.00 | 0.00 | 29 | 1015.3 |
| 20260503202516 | 62 | 360 | 4.3 | 13.9 | 0.00 | 0.00 | 0.00 | 28 | 1015.4 |
| 20260503202013 | 62 | 360 | 0.9 | 9.6 | 0.00 | 0.00 | 0.00 | 30 | 1015.3 |
| 20260503201532 | 62 | 360 | 2.6 | 12.2 | 0.00 | 0.00 | 0.00 | 30 | 1015.4 |
| 20260503201014 | 61 | 360 | 5.2 | 12.2 | 0.00 | 0.00 | 0.00 | 30 | 1015.5 |
| 20260503200514 | 61 | 360 | 7.0 | 12.2 | 0.00 | 0.00 | 0.00 | 30 | 1015.6 |
| 20260503200035 | 61 | 360 | 3.5 | 8.7 | 0.00 | 0.00 | 0.00 | 31 | 1015.6 |
| 20260503195514 | 61 | 360 | 3.5 | 13.9 | 0.00 | 0.00 | 0.00 | 31 | 1015.6 |
| 20260503195016 | 61 | 360 | 4.3 | 13.9 | 0.00 | 0.00 | 0.00 | 32 | 1015.7 |
| 20260503194534 | 61 | 360 | 4.3 | 11.3 | 0.00 | 0.00 | 0.00 | 31 | 1015.7 |
| 20260503194015 | 61 | 360 | 4.3 | 12.2 | 0.00 | 0.00 | 0.00 | 29 | 1015.8 |
| 20260503193517 | 61 | 360 | 5.2 | 12.2 | 0.00 | 0.00 | 0.00 | 29 | 1016.0 |
| 20260503193040 | 61 | 360 | 5.2 | 12.2 | 0.00 | 0.00 | 0.00 | 30 | 1016.1 |
| 20260503192515 | 60 | 360 | 6.1 | 13.0 | 0.00 | 0.00 | 0.00 | 32 | 1016.3 |
| 20260503192019 | 60 | 360 | 5.2 | 13.0 | 0.00 | 0.00 | 0.00 | 31 | 1016.3 |
| 20260503191530 | 60 | 360 | 6.1 | 10.4 | 0.00 | 0.00 | 0.00 | 31 | 1016.4 |
| 20260503191018 | 60 | 360 | 2.6 | 13.9 | 0.00 | 0.00 | 0.00 | 31 | 1016.4 |
| 20260503190513 | 60 | 360 | 7.0 | 13.9 | 0.00 | 0.00 | 0.00 | 31 | 1016.6 |
| 20260503190032 | 60 | 360 | 6.1 | 11.3 | 0.00 | 0.00 | 0.00 | 33 | 1016.8 |
| 20260503185514 | 59 | 360 | 3.5 | 11.3 | 0.00 | 0.00 | 0.00 | 32 | 1016.7 |
| 20260503185017 | 60 | 360 | 4.3 | 12.2 | 0.00 | 0.00 | 0.00 | 32 | 1016.8 |
| 20260503184530 | 60 | 360 | 6.1 | 12.2 | 0.00 | 0.00 | 0.00 | 33 | 1016.9 |
| 20260503184017 | 60 | 360 | 5.2 | 15.6 | 0.00 | 0.00 | 0.00 | 34 | 1017.0 |
| 20260503183517 | 59 | 360 | 3.5 | 15.6 | 0.00 | 0.00 | 0.00 | 36 | 1016.9 |
| 20260503183029 | 59 | 360 | 5.2 | 13.0 | 0.00 | 0.00 | 0.00 | 33 | 1017.0 |
| 20260503182514 | 59 | 360 | 6.1 | 11.3 | 0.00 | 0.00 | 0.00 | 34 | 1017.0 |
| 20260503182014 | 58 | 360 | 0.0 | 7.0 | 0.00 | 0.00 | 0.00 | 35 | 1016.8 |
| 20260503181532 | 58 | 360 | 0.9 | 13.0 | 0.00 | 0.00 | 0.00 | 34 | 1017.0 |
| 20260503181014 | 58 | 360 | 5.2 | 13.0 | 0.00 | 0.00 | 0.00 | 36 | 1017.0 |
| 20260503180517 | 58 | 360 | 4.3 | 10.4 | 0.00 | 0.00 | 0.00 | 37 | 1017.0 |
| 20260503180034 | 58 | 360 | 3.5 | 7.8 | 0.00 | 0.00 | 0.00 | 35 | 1017.0 |
| 20260503175516 | 57 | 360 | 1.7 | 8.7 | 0.00 | 0.00 | 0.00 | 38 | 1017.1 |
| 20260503175016 | 57 | 360 | 2.6 | 11.3 | 0.00 | 0.00 | 0.00 | 36 | 1017.1 |
| 20260503174533 | 57 | 360 | 5.2 | 11.3 | 0.00 | 0.00 | 0.00 | 34 | 1017.1 |
| 20260503174016 | 57 | 360 | 6.1 | 11.3 | 0.00 | 0.00 | 0.00 | 38 | 1017.3 |